User: anonymous   Login
Location: Peebles
(55.6412°N, 3.1714°W)
Time: 15:44:17
(UTC+01:00)
Language:

FENGYUN 1C DEB - Orbit

View from above orbital plane
View from above orbital plane
View from above satellite
View from above satellite

Ground track
Ground track

The orbit data is extracted from the following two-line orbital elements,

1 29963U 99025KM  22278.80278615  .00001410  00000-0  62543-3 0  9991
2 29963  99.1055 106.4200 0054435  54.2743  67.2807 14.23978437815483
Epoch (UTC): 05 October 2022 19:16:00
Eccentricity: 0.0054435
inclination: 99.1055°
perigee height: 773 km
apogee height: 851 km
right ascension of ascending node: 106.4200°
argument of perigee: 54.2743°
revolutions per day: 14.23978437
mean anomaly at epoch: 67.2807°
orbit number at epoch: 81548

The dashed part of the orbit path shows where the satellite is in the earth's shadow,  

DLR